Weather History for Roswell, NM

Change the Weather History Date:

Saturday, March 16, 2013

  Actual Average Record
Temperature  
Mean Temperature 67 °F 53 °F  
Max Temperature 88 °F 68 °F 90 °F (1908)
Min Temperature 46 °F 37 °F 18 °F (1962)
Degree Days  
Heating Degree Days 0 13  
Month to date heating degree days 174 229  
Since 1 July heating degree days 2628 2936  
Cooling Degree Days 2 0  
Month to date cooling degree days 2 0  
Year to date cooling degree days 2 0  
Growing Degree Days 17 (Base 50)    
Moisture  
Dew Point 19 °F    
Average Humidity 23    
Maximum Humidity 40    
Minimum Humidity 5    
Precipitation  
Precipitation 0.00 in 0.02 in 0.43 in (1998)
Month to date precipitation T 0.26  
Year to date precipitation 0.44 1.06  
Sea Level Pressure  
Sea Level Pressure 29.63 in    
Wind  
Wind Speed 7 mph (North)    
Max Wind Speed 29 mph    
Max Gust Speed 33 mph    
Visibility 10 miles    
Events      
T = Trace of Precipitation, MM = Missing Value Source: NWS Daily Summary

Daily Weather History Graph

Daily Weather History Graph

Search for Another Location

Airport:

Trip Planner

Search our weather history database for the weather conditions in past years. The results will help you decide how hot, cold, wet, or windy it might be!

Date:

Astronomy

Mar. 16, 2013 Rise Set
Actual Time 7:06 AM MDT 7:06 PM MDT
Civil Twilight 6:42 AM MDT 7:31 PM MDT
Nautical Twilight 6:13 AM MDT 8:00 PM MDT
Astronomical Twilight 5:44 AM MDT 8:29 PM MDT
Moon 9:53 AM MDT (3/16) No Moon Set
Length of Visible Light 12h 49m
Length of Day
12h 00m
Waxing Crescent, 23% of the Moon is Illuminated
Mar 16
Waxing Crescent
Mar 19
First Quarter
Mar 27
Full
Apr 2
Last Quarter
Apr 10
New

Hourly Weather History & Observations

Time (MDT) Temp. Dew Point Humidity Pressure Visibility Wind Dir Wind Speed Gust Speed Precip Events Conditions
12:51 AM 62.1 °F 10.0 °F 13% 29.68 in 10.0 mi West 11.5 mph - N/A   Clear
2:51 AM 59.0 °F 10.0 °F 14% 29.65 in 10.0 mi WSW 8.1 mph - N/A   Clear
3:51 AM 62.1 °F 10.9 °F 13% 29.65 in 10.0 mi WNW 5.8 mph - N/A   Clear
4:51 AM 59.0 °F 10.9 °F 15% 29.65 in 10.0 mi NNE 4.6 mph - N/A   Clear
5:51 AM 52.0 °F 12.0 °F 20% 29.67 in 10.0 mi Calm Calm - N/A   Clear
6:51 AM 46.0 °F 18.0 °F 33% 29.71 in 10.0 mi Calm Calm - N/A   Clear
7:51 AM 50.0 °F 14.0 °F 24% 29.72 in 10.0 mi Calm Calm - N/A   Clear
9:51 AM 69.1 °F 12.9 °F 11% 29.72 in 10.0 mi SE 5.8 mph - N/A   Clear
10:51 AM 77.0 °F 14.0 °F 9% 29.69 in 10.0 mi Calm Calm - N/A   Clear
11:51 AM 82.0 °F 17.1 °F 9% 29.66 in 10.0 mi Variable 6.9 mph - N/A   Clear
12:51 PM 84.0 °F 16.0 °F 8% 29.62 in 10.0 mi Calm Calm - N/A   Clear
1:51 PM 86.0 °F 12.9 °F 7% 29.57 in 10.0 mi NNE 4.6 mph - N/A   Clear
2:51 PM 87.1 °F 12.0 °F 6% 29.54 in 10.0 mi Variable 4.6 mph - N/A   Clear
3:51 PM 87.1 °F 12.9 °F 6% 29.51 in 10.0 mi ESE 10.4 mph - N/A   Clear
4:51 PM 86.0 °F 9.0 °F 5% 29.49 in 10.0 mi South 9.2 mph - N/A   Clear
5:46 PM 80.6 °F 24.8 °F 13% 29.68 in 9.0 mi North 19.6 mph - N/A   Clear
5:51 PM 81.0 °F 24.1 °F 12% 29.53 in 10.0 mi North 20.7 mph 27.6 mph N/A   Clear
6:51 PM 75.9 °F 28.0 °F 17% 29.58 in 10.0 mi NNE 13.8 mph - N/A   Clear
7:51 PM 73.0 °F 30.0 °F 20% 29.60 in 10.0 mi NNE 9.2 mph - N/A   Clear
8:51 PM 69.1 °F 30.9 °F 24% 29.61 in 10.0 mi NE 9.2 mph - N/A   Clear
9:51 PM 64.9 °F 33.1 °F 31% 29.63 in 10.0 mi North 8.1 mph - N/A   Clear
10:51 PM 61.0 °F 34.0 °F 36% 29.64 in 10.0 mi North 10.4 mph - N/A   Clear
11:51 PM 57.9 °F 34.0 °F 41% 29.62 in 10.0 mi NNW 10.4 mph - N/A   Clear